Airfield :
LOGIN :

Register | Disclaimer

   EN    FR    IT 

 










Legend :    VFR   Marginal VFR   IFR   Intensive IFR   Very Intensive IFR
Visi :
Ceiling :
>= 8 km
>= 3000ft
5 to 8 km
1000 to 3000 ft
1500m to 5 km
500 to 1000 ft
800 to 1500m
200 to 500 ft
< 800m
< 200 ft
Symbols :   Thunderstorms  Fog  Heavy snow  Heavy precipitations  Wind > 20 kt
SIGMETs :     Misc.  Thunderstorms  Icing  Turbulence  Mountain Waves  Volcanic Ashes






- Airport Elevation : 330 ft
- IATA code : LVA


LFOV - Laval-Entrammes

CURRENT METAR :
  • 062300Z AUTO 34010KT 290V360 CAVOK 16/14 Q1027

EXPIRED METARs :
  • 062230Z AUTO 34009KT CAVOK 17/13 Q1027
  • 062200Z AUTO 33010KT CAVOK 17/13 Q1027
  • 062130Z AUTO 34012KT CAVOK 18/13 Q1027
  • 062100Z AUTO 34010KT 310V010 CAVOK 19/13 Q1027
  • 062030Z AUTO 33007KT CAVOK 19/13 Q1027

TAF N/A



MET'MAP, your aeronautical weather chart ! - Copyright ORBIFLY December 2007 - Disclaimer

ORBIFLY MET'MAP TEAM :

Programming & Development : Alexandra Zaïnal
Original concept : Baudouin d'Aumeries
Technical & hardware support : Manuel Goepfert
Assistance : Marc-Olivier Méhu




SOURCES & CREDITS :

   NOAA